St. George, UT

1:40 AM MST on February 25, 2018 (GMT -0700)
Saint George Municipal

Weather History for KSGU - March, 2013

Change the Weather History Date:

Wednesday, March 6, 2013

  Actual Average Record
Temperature  
Mean Temperature 58 °F -  
Max Temperature 69 °F 65 °F 83 °F (1934)
Min Temperature 46 °F 36 °F 22 °F (1955)
Degree Days  
Heating Degree Days 8    
Growing Degree Days 8 (Base 50)    
Moisture  
Dew Point 24 °F    
Average Humidity 30    
Maximum Humidity 46    
Minimum Humidity 15    
Precipitation  
Precipitation 0.00 in - - ()
Sea Level Pressure  
Sea Level Pressure 29.95 in    
Wind  
Wind Speed 12 mph (South)    
Max Wind Speed 28 mph    
Max Gust Speed 34 mph    
Visibility 10 miles    
Events      
Averages and records for this station are not official NWS values.
T = Trace of Precipitation, MM = Missing Value Source: NWS Daily Summary

Daily Weather History Graph

Daily Weather History Graph

Search for Another Location

Airport or City:

Trip Planner

Search our weather history database for the weather conditions in past years. The results will help you decide how hot, cold, wet, or windy it might be!

Date:

Astronomy

Mar. 06, 2013 Rise Set
Actual Time 6:57 AM MST 6:33 PM MST
Civil Twilight 6:31 AM MST 6:59 PM MST
Nautical Twilight 6:01 AM MST 7:29 PM MST
Astronomical Twilight 5:31 AM MST 7:59 PM MST
Moon 3:04 AM MST (3/6) 1:25 PM MST (3/6)
Length of Visible Light 12h 27m
Length of Day
11h 35m
Waning Crescent, 29% of the Moon is Illuminated
Mar 6
Waning Crescent
Mar 11
New
Mar 19
First Quarter
Mar 27
Full
Apr 2
Last Quarter

Hourly Weather History & Observations

Time (MST) Temp. Windchill Dew Point Humidity Pressure Visibility Wind Dir Wind Speed Gust Speed Precip Events Conditions
12:15 AM 51.8 °F - 26.6 °F 38% 30.01 in 10.0 mi SE 11.5 mph - N/A   Clear
12:35 AM 50.0 °F - 24.8 °F 37% 30.01 in 10.0 mi SE 10.4 mph - N/A   Clear
12:55 AM 50.0 °F - 24.8 °F 37% 30.01 in 10.0 mi SE 9.2 mph - N/A   Clear
1:15 AM 50.0 °F - 24.8 °F 37% 30.00 in 10.0 mi North 4.6 mph - N/A   Clear
1:35 AM 51.8 °F - 26.6 °F 38% 29.99 in 10.0 mi SSE 4.6 mph - N/A   Clear
1:55 AM 51.8 °F - 24.8 °F 35% 29.99 in 10.0 mi SSE 5.8 mph - N/A   Clear
2:15 AM 48.2 °F - 24.8 °F 40% 30.00 in 10.0 mi SW 5.8 mph - N/A   Clear
2:35 AM 48.2 °F - 26.6 °F 43% 29.99 in 10.0 mi SE 6.9 mph - N/A   Clear
2:55 AM 48.2 °F - 26.6 °F 43% 29.98 in 10.0 mi SE 9.2 mph - N/A   Clear
3:15 AM 48.2 °F - 26.6 °F 43% 29.97 in 10.0 mi ESE 10.4 mph - N/A   Clear
3:35 AM 48.2 °F - 26.6 °F 43% 29.97 in 10.0 mi ESE 13.8 mph - N/A   Clear
3:55 AM 48.2 °F - 26.6 °F 43% 29.97 in 10.0 mi ESE 15.0 mph - N/A   Clear
4:15 AM 48.2 °F - 26.6 °F 43% 29.97 in 10.0 mi ESE 13.8 mph - N/A   Clear
4:35 AM 48.2 °F - 26.6 °F 43% 29.97 in 10.0 mi ESE 13.8 mph - N/A   Clear
4:55 AM 48.2 °F - 26.6 °F 43% 29.97 in 10.0 mi ESE 16.1 mph - N/A   Clear
5:15 AM 48.2 °F - 24.8 °F 40% 29.98 in 10.0 mi ESE 13.8 mph - N/A   Clear
5:35 AM 48.2 °F - 24.8 °F 40% 29.99 in 10.0 mi SSE 5.8 mph - N/A   Clear
5:55 AM 46.4 °F 43.5 °F 26.6 °F 46% 29.99 in 10.0 mi SSW 5.8 mph - N/A   Clear
6:15 AM 46.4 °F 42.9 °F 26.6 °F 46% 30.00 in 10.0 mi South 6.9 mph - N/A   Clear
6:35 AM 48.2 °F - 24.8 °F 40% 30.00 in 10.0 mi ESE 12.7 mph - N/A   Clear
6:55 AM 48.2 °F - 24.8 °F 40% 30.00 in 10.0 mi ESE 16.1 mph - N/A   Clear
7:15 AM 48.2 °F - 24.8 °F 40% 30.00 in 10.0 mi ESE 12.7 mph - N/A   Clear
7:35 AM 48.2 °F - 24.8 °F 40% 30.00 in 10.0 mi ESE 13.8 mph - N/A   Clear
7:55 AM 48.2 °F - 26.6 °F 43% 30.01 in 10.0 mi SSE 8.1 mph - N/A   Clear
8:15 AM 48.2 °F - 26.6 °F 43% 30.01 in 10.0 mi SSE 6.9 mph - N/A   Clear
8:35 AM 50.0 °F - 26.6 °F 40% 30.03 in 10.0 mi ESE 9.2 mph - N/A   Clear
8:55 AM 53.6 °F - 28.4 °F 38% 30.03 in 10.0 mi ESE 11.5 mph - N/A   Clear
9:15 AM 55.4 °F - 28.4 °F 36% 30.02 in 10.0 mi ESE 12.7 mph - N/A   Clear
9:35 AM 59.0 °F - 30.2 °F 34% 30.01 in 10.0 mi SE 12.7 mph - N/A   Clear
9:55 AM 60.8 °F - 30.2 °F 31% 30.00 in 10.0 mi SE 11.5 mph - N/A   Clear
10:15 AM 60.8 °F - 30.2 °F 31% 30.00 in 10.0 mi South 11.5 mph - N/A   Clear
10:35 AM 62.6 °F - 30.2 °F 30% 30.00 in 10.0 mi SSW 16.1 mph 21.9 mph N/A   Clear
10:55 AM 64.4 °F - 30.2 °F 28% 29.99 in 10.0 mi SSW 15.0 mph 24.2 mph N/A   Clear
11:15 AM 64.4 °F - 28.4 °F 26% 29.98 in 10.0 mi SSW 16.1 mph 23.0 mph N/A   Clear
11:35 AM 66.2 °F - 28.4 °F 24% 29.96 in 10.0 mi South 19.6 mph 25.3 mph N/A   Clear
11:55 AM 66.2 °F - 26.6 °F 23% 29.96 in 10.0 mi SSW 18.4 mph 24.2 mph N/A   Clear
12:15 PM 68.0 °F - 26.6 °F 21% 29.95 in 10.0 mi South 21.9 mph 29.9 mph N/A   Clear
12:35 PM 68.0 °F - 26.6 °F 21% 29.95 in 10.0 mi WSW 19.6 mph 25.3 mph N/A   Clear
12:55 PM 66.2 °F - 26.6 °F 23% 29.94 in 10.0 mi West 11.5 mph 18.4 mph N/A   Clear
2:15 PM 69.8 °F - 24.8 °F 18% 29.89 in 10.0 mi SSW 18.4 mph 29.9 mph N/A   Clear
2:35 PM 69.8 °F - 23.0 °F 17% 29.88 in 10.0 mi South 23.0 mph 28.8 mph N/A   Clear
2:55 PM 69.8 °F - 21.2 °F 16% 29.87 in 10.0 mi South 24.2 mph 28.8 mph N/A   Clear
3:15 PM 69.8 °F - 23.0 °F 17% 29.88 in 10.0 mi WSW 19.6 mph 34.5 mph N/A   Clear
3:35 PM 69.8 °F - 23.0 °F 17% 29.87 in 10.0 mi SSW 23.0 mph 28.8 mph N/A   Clear
3:55 PM 69.8 °F - 21.2 °F 16% 29.86 in 10.0 mi SW 25.3 mph 31.1 mph N/A   Clear
4:15 PM 69.8 °F - 19.4 °F 15% 29.86 in 10.0 mi SW 25.3 mph 34.5 mph N/A   Clear
4:35 PM 68.0 °F - 19.4 °F 16% 29.86 in 10.0 mi SSW 24.2 mph 28.8 mph N/A   Clear
4:55 PM 69.8 °F - 19.4 °F 15% 29.86 in 10.0 mi SW 27.6 mph - N/A   Clear
5:15 PM 66.2 °F - 17.6 °F 15% 29.87 in 10.0 mi SSW 25.3 mph 31.1 mph N/A   Clear
5:35 PM 66.2 °F - 17.6 °F 15% 29.87 in 10.0 mi SW 25.3 mph 31.1 mph N/A   Clear
5:55 PM 66.2 °F - 17.6 °F 15% 29.87 in 10.0 mi SW 18.4 mph - N/A   Clear
6:15 PM 64.4 °F - 17.6 °F 16% 29.87 in 10.0 mi SSW 16.1 mph - N/A   Clear
6:35 PM 64.4 °F - 17.6 °F 16% 29.87 in 10.0 mi SSW 12.7 mph - N/A   Clear
6:55 PM 62.6 °F - 17.6 °F 18% 29.88 in 10.0 mi SSW 10.4 mph - N/A   Clear
7:35 PM 60.8 °F - 17.6 °F 19% 29.89 in 10.0 mi SSW 4.6 mph - N/A   Clear
7:55 PM 57.2 °F - 17.6 °F 21% 29.89 in 10.0 mi SSE 6.9 mph - N/A   Clear
8:35 PM 57.2 °F - 19.4 °F 23% 29.89 in 10.0 mi SSE 10.4 mph - N/A   Clear
8:55 PM 55.4 °F - 19.4 °F 25% 29.89 in 10.0 mi ESE 11.5 mph - N/A   Clear
9:15 PM 57.2 °F - 19.4 °F 23% 29.89 in 10.0 mi SE 13.8 mph - N/A   Clear
9:35 PM 59.0 °F - 21.2 °F 23% 29.90 in 10.0 mi South 12.7 mph - N/A   Clear
9:55 PM 59.0 °F - 19.4 °F 22% 29.90 in 10.0 mi South 10.4 mph - N/A   Clear
10:15 PM 57.2 °F - 19.4 °F 23% 29.91 in 10.0 mi South 9.2 mph - N/A   Clear
10:35 PM 57.2 °F - 21.2 °F 25% 29.91 in 10.0 mi South 11.5 mph 17.3 mph N/A   Clear
10:55 PM 57.2 °F - 21.2 °F 25% 29.91 in 10.0 mi South 11.5 mph - N/A   Clear
11:15 PM 57.2 °F - 21.2 °F 25% 29.91 in 10.0 mi South 12.7 mph - N/A   Clear
11:35 PM 57.2 °F - 21.2 °F 25% 29.92 in 10.0 mi WSW 12.7 mph - N/A   Clear
11:55 PM 55.4 °F - 21.2 °F 26% 29.92 in 10.0 mi SW 10.4 mph - N/A   Clear